Regional Weather Roundup
Issued by NWS San Diego, CA

Home | Current Version | Previous Version | Text Only | Print | Product List | Glossary On
Versions: 1 2 3 4 5 6 7 8 9 10 11 12 13 14 15 16 17 18 19 20 21 22 23 24 25 26 27 28 29 30 31 32 33 34 35 36 37 38 39 40 41 42 43 44 45 46 47 48 49 50
000
ASUS46 KSGX 041411
RWRSGX

SAN DIEGO HOURLY WEATHER ROUNDUP
NATIONAL WEATHER SERVICE SAN DIEGO CA
600 AM PST SUN DEC 04 2016

NOTE: "FAIR" INDICATES FEW OR NO CLOUDS BELOW 12,000 FEET WITH NO
SIGNIFICANT WEATHER AND/OR OBSTRUCTIONS TO VISIBILITY.

CAZ042-043-060-061-PZZ750-775-041500-

GREATER SAN DIEGO AREA

CITY           SKY/WX    TMP DP  RH WIND       PRES   REMARKS
SAN DIEGO AP   CLEAR     48  30  49 CALM      30.08R
NATIONAL CITY    N/A     43  33  68 CALM      30.07S
CHULA VISTA      N/A     42  33  70 E3        29.98S
IMPERIAL BEACH CLEAR     49  32  52 E9        30.07R
MIRAMAR MCAS   CLEAR     48  32  53 E9        30.06R
MONTGOMERY FLD CLEAR     45  30  55 CALM      30.06S

$$

NORTH SAN DIEGO COUNTY

CITY           SKY/WX    TMP DP  RH WIND       PRES   REMARKS
CAMP PENDLETON CLEAR     31  26  82 CALM      30.07S
OCEANSIDE AP   CLEAR     36  29  75 CALM      30.07R
OCEANSIDE HBR    N/A     44  31  61 NE5       30.09S
VISTA            N/A     42  30  61 CALM      30.05S
CARLSBAD       CLEAR     50  26  39 NE3       30.05R
DEL MAR          N/A     49  30  47 CALM      30.09R
LA JOLLA SCRIP   N/A     54  31  41 NE6       30.06R
FALLBROOK        N/A     53  26  35 NE2       30.05S
ESCONDIDO        N/A     40  30  67 CALM      30.10R
SAN MARCOS       N/A     50  25  37 E1        30.09R
POWAY            N/A     36  30  78 CALM      30.10R

$$

EAST SAN DIEGO COUNTY

CITY           SKY/WX    TMP DP  RH WIND       PRES   REMARKS
RAMONA         CLEAR     31  27  85 CALM      30.07R
SANTEE LAKES     N/A     37  32  83 CALM      30.08S
LA MESA          N/A     49  28  44 CALM      30.01R
JAMUL            N/A     42  27  55 CALM      30.09R
DESCANSO N       N/A     56  16  20 E7        30.03R
CAMPO            N/A     44  17  33 CALM      30.06R

$$

ORANGE COUNTY AND THE LOS ANGELES BASIN

CITY           SKY/WX    TMP DP  RH WIND       PRES   REMARKS
JOHN WAYNE AP  CLEAR     46  30  53 CALM      30.06R
LAGUNA BEACH     N/A     41  32  69 NW3       30.02R
LAKE FOREST FR   N/A     51  19  27 CALM      29.96R
HUNTINGTON BCH   N/A     39  36  87 CALM      30.08R
LOS ALAMITOS   FAIR      42  33  71 CALM      30.06R
FULLERTON      CLEAR     42  28  57 CALM      30.06R
LONG BEACH     CLEAR     44  34  67 CALM      30.07R
L.A. AP        CLEAR     47  32  56 SE3       30.07R
L.A. DOWNTOWN  CLEAR     45  33  63 CALM      30.06R

$$

THE INLAND EMPIRE

CITY           SKY/WX    TMP DP  RH WIND       PRES   REMARKS
CORONA         CLEAR     32  27  81 CALM      30.08R
CHINO          CLEAR     41  30  65 CALM      30.08R
ONTARIO        PTCLDY    44  25  47 N7        30.06S
SAN BERNARDINO FAIR      43  27  52 E6        30.07S
RIVERSIDE AP   CLEAR     46  26  45 NE3       30.07R
MORENO VALLEY    N/A     51  29  42 CALM      28.20R
MARCH ARB      CLEAR     34  29  80 CALM      30.08R
HORSETHIEF CYN   N/A     48  15  26 SW1       30.11R
PERRIS           N/A     39  29  69 CALM      30.13R
HEMET EAST       N/A     50  13  22 CALM      30.14S
FRENCH VALLEY  NOT AVBL
TEMECULA         N/A     37  31  79 CALM      30.15F

$$

SAN BERNARDINO AND RIVERSIDE COUNTY MOUNTAINS

CITY           SKY/WX    TMP DP  RH WIND       PRES   REMARKS
BIG BEAR AP    CLEAR     23  12  63 CALM      30.25R
ANGELUS OAKS     N/A     45  17  31 CALM      30.09R
PINE COVE        N/A     49  10  20 CALM      30.11S

$$

SOUTHERN DESERT INCLUDING THE COACHELLA VALLEY

CITY           SKY/WX    TMP DP  RH WIND       PRES   REMARKS
PALM SPRINGS   CLEAR     50  23  34 N8        30.09R
PALM DESERT      N/A     44  30  57 CALM        N/A
THERMAL        CLEAR     38  21  50 CALM      30.06R
BLYTHE         CLEAR     49  11  21 N13       30.09R
IMPERIAL AP    CLEAR     44  19  36 W6        30.07R
EL CENTRO NAS  CLEAR     43  11  27 W10       30.08S
YUMA AZ        CLEAR     52  13  21 CALM      30.07
MEXICALI       CLEAR     46  10  23 CALM      30.08

$$

UPPER DESERT

CITY           SKY/WX    TMP DP  RH WIND       PRES   REMARKS
VICTORVILLE AP   N/A     32   7  34 S6        30.17S WCI  26
HESPERIA         N/A     33  12  41 W1        30.37R
PALMDALE       PTCLDY    30  13  49 CALM      30.19R
LANCASTER      PTCLDY    24   7  48 CALM      30.19S
EDWARDS AFB    CLEAR     24   7  47 CALM      30.18R
DAGGETT        CLEAR     38   6  26 W14       30.17R WCI  30
29 PALMS N     CLEAR     43  11  27 W10       30.22R
NEEDLES        CLEAR     53  16  23 N10       30.12R

$$

REGIONAL REPORTS

CITY           SKY/WX    TMP DP  RH WIND       PRES   REMARKS
SANTA BARBARA  CLEAR     40  35  83 CALM      30.06R
LAS VEGAS NV   CLEAR     39  14  36 CALM      30.17R
PHOENIX AZ     CLEAR     42  30  62 CALM      30.04R
TIJUANA        CLEAR     46  28  49 CALM      30.08S
ENSENADA NW      N/A     55  32  42 CALM      30.03R

$$

OFFSHORE ISLANDS

CITY           SKY/WX    TMP DP  RH WIND       PRES   REMARKS
CATALINA ARPT  CLEAR     60  16  18 NE7       30.08R
SAN NICOLAS IS CLEAR     51  42  71 W13       30.06R

$$

MARINE AND OFFSHORE BUOY REPORTS

STATION/POSITION SKY/WX   TEMP    WIND        PRES    SWELL
                          AIR SEA DIR/SP/G            HT/PER/DIR
                          (F)     (DEG/KT/KT) (MB)    (FT/S/D)
TANNER BANKS               59 62  320/ 12/ 16 1017.9R   8/310/19
S CLEMENTE BASIN           59 60  320/  2/  4 1017.6R   7/280/19
SAN NICOLAS IS.               59                N/A     7/300/18
SO. S. ROSA ISLA           58 59  310/ 16/ 19 1017.6S   8/300/17
W. S. BARBARA CH           59 58  320/ 17/ 21 1017.6    8/300/17
M. S. BARBARA CH                  250/  6/  8 1018.3R
S. MONICA BASIN            59 60   60/  6/  8 1017.1R   3/270/19
S PEDRO CHANNEL               61                N/A     2/270/18
CMP PENDLETON NS              59                N/A     2/210/14
OCEANSIDE OFFSHR              61                N/A     2/200/13
TORREY PINES OTR              62                N/A     3/270/18
POINT LOMA SOUTH              61                N/A     3/270/18

$$




USA.gov is the U.S. government's official web portal to all federal, state and local government web resources and services.